Погода в Соловьевске

Погода в Соловьевске : погода сейчас, прогноз погоды и архив. Всё, что Вы хотите узнать о погоде в Соловьевске!

Поиск расширенной информации на нашем сайте:

Другие новости

Новости СМИ2

Главная страница сайта

Новости сайта

03.07.2017

Напоминаем, что на нашем специализированном сайте Метеоцентр.Азия вы можете получить высокодетализированные автоматические прогнозы погоды по пунктам России, СНГ и мира в авиационном формате (включающие направление и скорость ветра, видимость, явления погоды, количество и форму облачности, нижнюю и верхнюю границу облачности).


Погода в Соловьевске - сегодня

Время (UTC), дата Ветер
(°,м/с) 
Видим.   Явления Облачность Т
(°С)
Тd
(°С)
f(%) Тe
(°С)
Pmin
(гПа)
dP
(гПа)
Po
(мм)
O2
(г/м3)
Тmin Tmax R s Состояние
почвы
09 13.06.18 040 (СВ) 6{12}  20000 м    10/8 600 м кучево-дожд., средняя, верхняя 
[Cb cap|Ac trans|Ci sp]
+19 +10 56 +22  1003.4  0.4  701  262           
15 13.06.18 060 (СВ) 20000 м    6/3 1000 м средняя, верхняя 
[Sc diur, vesp|Ac trans|Ci sp]
+11.8 +9.3 85 +14  1007.8  0.7  702  269           
18 13.06.18 340 (С) 20000 м    6/0 верхняя 
[Ci sp]
+8.6 +7 90 +10  1008.8  0.1  702  273           
21 13.06.18 050 (СВ) 20000 м    3/0 верхняя 
[Ci sp]
+8.2 +7.3 94 +8  1009.7  0.8  703  274           
03 14.06.18 090 (В) 20000 м    9/4 600 м кучево-дожд., верхняя 
[Cb cap|Ci sp]
+20.3 +5.5 38 +20  1006.3  -0.9  703  263           
09 14.06.18 150 (ЮВ) 20000 м    5/3 1000 м средняя, верхняя 
[Sc diur, vesp|Ac trans|Ci sp]
+23.9 +1.7 23 +24  1002  -1.7  700  259           
15 14.06.18 110 (В) 20000 м    9/5 600 м кучево-дожд., верхняя 
[Cb cap|Ci sp]
+18 +3.9 39 +19  1002.9  700  264           
18 14.06.18 150 (ЮВ) 20000 м    6/4 600 м кучево-дожд., верхняя 
[Cb cap|Ci sp]
+15.1 +5.5 53 +15  1003.3  -0.3  700  266           
21 14.06.18 120 (ЮВ) 20000 м    10/6 600 м кучево-дожд., средняя, верхняя 
[Cb cap|Ac trans|Ci sp]
+14.8 +10 73 +18  1002.3  -0.9  699  265           
03 15.06.18 180 (Ю) 20000 м  {ливн. осадки}  10/8 600 м кучево-дожд., средняя 
[Cb cap|Ac As]
+18 +10.5 62 +22  1002.1  -0.5  699  262           
09 15.06.18 040 (СВ) 4000 м  слаб. ливневой дождь  10/10 600 м кучево-дожд. 
[Cb cap]
+14.5 +13.1 91 +21  1002.4  -0.2  699  265           
15 15.06.18 350 (С) 20000 м    8/4 600 м кучево-дожд., средняя, верхняя 
[Cb cap|Ac trans|Ci sp]
+11.2 +9.8 91 +13  1005.2  1.1  700  269           
18 15.06.18 310 (СЗ) 20000 м    8/4 600 м кучево-дожд., средняя, верхняя 
[Cb cap|Ac trans|Ci sp]
+10.8 +10.3 97 +13  1006.5  1.2  701  270           
21 15.06.18 300 (СЗ) 20000 м    9/0 средняя, верхняя 
[Ac trans|Ci sp]
+9.9 +9.4 97 +12  1007.3  0.5  702  271           
03 16.06.18 350 (С) 20000 м    4/3 1000 м верхняя 
[Sc|Ci sp]
+20.7 +8.1 44 +21  1006  0.5  703  262           
09 16.06.18 350 (С) 20000 м    8/5 600 м кучево-дожд., верхняя 
[Cb cap|Ci sp]
+23.8 +6.7 33 +24  1003.8  -0.7  702  259           
15 16.06.18 060 (СВ) 4000 м  слаб. ливневой дождь  10/8 600 м кучево-дожд., средняя 
[Cb cap|Ac As]
+14.7 +12.9 89 +23  1007.6  1.3  703  266           
18 16.06.18 130 (ЮВ) 20000 м  {ливн. осадки}  10/8 600 м кучево-дожд., средняя, верхняя 
[Cb cap|Ac trans|Ci sp]
+15 +13.4 90 +24  1006.2  -1.2  702  265           
21 16.06.18 310 (СЗ) 20000 м    8/4 600 м кучево-дожд., средняя, верхняя 
[Cb cap|Ac trans|Ci sp]
+13.2 +12.6 96 +20  1006.8  0.1  702  267           
03 17.06.18 320 (СЗ) 20000 м    10/6 600 м кучево-дожд., средняя, верхняя 
[Cb cap|Ac trans|Ci sp]
+19.8 +11.1 57 +25  1004.3  -0.8  701  261           
09 17.06.18 290 (З) 20000 м    10/6 600 м кучево-дожд., средняя, верхняя 
[Cb cap|Ac trans|Ci sp]
+20.8 +10.2 51 +24  1002  -0.8  700  260           
15 17.06.18 280 (З) 20000 м    10/4 600 м кучево-дожд., средняя, верхняя 
[Cb cap|Ac trans|Ci sp]
+13.3 +10.4 83 +17  1003.6  0.2  700  267           
18 17.06.18 300 (СЗ) 20000 м    3/0 верхняя 
[Ci sp]
+10.7 +9.5 92 +13  1004.3  700  269           
21 17.06.18 300 (СЗ) 20000 м    3/0 верхняя 
[Ci sp]
+9.7 +8.6 93 +11  1004.8  0.2  700  271           
03 18.06.18 350 (С) 20000 м    5/3 1000 м верхняя 
[Sc diur, vesp|Ci sp]
+22.5 +7.9 39 +23  1001.6  -0.7  700  259           
Время (UTC), дата Ветер
(°,м/с) 
Видим.   Явления Облачность Т
(°С)
Тd
(°С)
f(%) Тe
(°С)
Pmin
(гПа)
dP
(гПа)
Po
(мм)
O2
(г/м3)
Тmin Tmax R s Состояние
почвы

Для получения пояснительной информации подведите курсор к названию столбца.

ПОГОДА в Соловьевске - архив

Всё, что Вы хотите узнать о погоде в Соловьевске - удобно и подробно!

Выберите нужную дату (начиная с 1 января 2015* года) и нажмите кнопку "Найти".
Будут отображены архивные сводки погоды по пункту Соловьевск, начиная с указанной даты.


Отображать данные в формате CSV (для использования в таблицах Excel)


Внимание! Наш архив погоды предназначен исключительно для личного некоммерческого использования в познавательных целях. Если Вам необходимы официальные справки о состоянии погоды (для производственных, юридических, коммерческих и т.п. целей), обращайтесь в органы Росгидромета.

*Примечание: данная дата относится к архиву по метеостанциям СССР (Россия, СНГ, Балтия).
Архив по метеостанциям Зарубежной Европы и Азии (кроме Китая) хранится 10 дней, по другим регионам земного шара (Китай, Африка, Америка, Австралия, Океания) - 1 день.

Соловьевск - район местоположения метеостанции


Название, широта, долгота, высота метеостанции:
Соловьевск 49.9°ш. 115.8°д. 623 м над ур. моря [Российская Федерация]

Дополнительная информация

В oтличие oт бoльшинства пoгoдных сайтoв мы публикуем пoдрoбную метеoинфoрмацию в детальнoм прoфессиoнальнoм фoрмате.

Характеристики температуры и влажнoсти вoздуха измеряются на высoте 2 м в тени вдали oт зданий и деревьев.
Скoрoсть ветра измеряется на высoте 10 м (на урoвне рoста челoвека скoрoсть ветра ниже в 1.5-2 раза). Если метеoстанция нахoдится в гoрoде или в лесу, тo скoрoсть ветра занижена на 2-4 м/с пo сравнению с oткрытым местoм. Скoрoсть ветра над акватoриями крупных рек и oзёр, а также на вершинах хoлмoв на 2-5 м/с выше, чем в oбычных услoвиях.
Атмoсфернoе давление в разных тoчках местнoсти мoжет значительнo oтличаться oт давления на метеoстанции, в зависимoсти oт услoвий рельефа (при пoдъёме на 10 м давление пoнижается примернo на 1 мм рт.ст.).